Погода в Дустлике

Узбекистан     40°31′29″N   68°01′57″E
темп.,
°C
ветер,
м/с
пор.,
м/с
влажн.,
%
обл.,
%
осадки,
мм/ч
давл.,
гПа
погр.,
м
3 марта, ср
ср323:00+9с2651100 0.0 1025316
02:00+8ссз2360100 0.0 1025197
05:00+7с3571100 0.0 1025276
08:00+5ссв237663 0.0 1024162
11:00+10ссв105431 0.0 1023544
14:00+13в11440 0.0 1020768
17:00+14ссв214226 0.0 1020926
20:00+11ссв345313 0.0 1021100
4 марта, чт
чт423:00+9ссв23637 0.0 102153
02:00+8в11720 0.0 102127
05:00+8юв23802 0.4 102051
08:00+9юв577687 1.6 1019202
11:00+13юв7105292 2.1 1018457
14:00+16ююв5840100 0.2 10161497
17:00+15в3354100 1.5 1017168
20:00+12сз3774100 2.2 1022394
5 марта, пт
пт523:00+8ссз6107599 2.4 1026762
02:00+6ссз5785100 2.8 1028698
05:00+5с3579100 4.6 1030598
08:00+5всв347888 0.0 1031493
11:00+8св335982 0.0 1029756
14:00+11в44380 0.0 10261250
17:00+12в45370 0.0 10231111
20:00+9всв34480 0.0 102482
6 марта, сб
сб623:00+7всв345432 0.0 1021107
02:00+6св336097 0.0 101856
05:00+6ссв356487 0.0 1014116
08:00+7св3651100 0.0 1012152
11:00+12ссв2231100 0.0 1011331
14:00+13сз4436100 0.0 1011404
17:00+11всв2362100 0.9 1012255
20:00+11ююз1263100 0.0 101450
7 марта, вс
вс723:00+10ссз1270100 0.1 101672
02:00+9ююз31367100 0.1 10171239
05:00+8юз2471100 0.3 1019321
08:00+8юз2366100 0.1 1020381
11:00+10с1255100 0.2 10201127
14:00+11всв2252100 0.0 10191272
17:00+12юв4452100 0.0 10181110
20:00+9ююв366717 0.0 1018175